Skip Page Navigation
NASA JPL Caltech
NASA Logo - Jet Propulsion Laboratory + View the NASA Portal
+ Center for Near-Earth Object Studies
JPL Home Earth Solar System Stars & Galaxies Technology
JPL Solar System Dynamics
BODIES ORBITS EPHEMERIDES TOOLS PHYSICAL DATA DISCOVERY FAQ SITE MAP
IMPORTANT: The SSD Announcement email list is now available. Major changes are coming in the near future, including possible hostname and/or URL changes. To be notified of such changes, subscribe to this email list.

Please visit this page for more details.


JPL Small-Body Database Browser
Search: [ help ]  
332446 (2008 AF4)
Classification: Apollo [NEO, PHA]          SPK-ID: 2332446
Ephemeris | Orbit Diagram | Orbital Elements | Mission Design | Physical Parameters | Discovery Circumstances | Close-Approach Data ]

[ show orbit diagram ]
Orbital Elements at Epoch 2458600.5 (2019-Apr-27.0) TDB
Reference: JPL 88 (heliocentric ecliptic J2000)
 Element Value Uncertainty (1-sigma)   Units 
e .4108166132351504 6.3745e-08  
a 1.382508734962921 1.1237e-08 au
q .8145511786974415 9.2864e-08 au
i 8.921105890527215 6.5521e-06 deg
node 109.3545534731371 1.5471e-05 deg
peri 293.459596403044 1.8662e-05 deg
M 11.78032744540896 3.6822e-05 deg
tp 2458581.070791256850
(2019-Apr-07.57079126)
6.0502e-05 TDB
period 593.7453928973731
1.63
7.2386e-06
1.982e-08
d
yr
n .6063204941149325 7.3919e-09 deg/d
Q 1.9504662912284 1.5853e-08 au
  Orbit Determination Parameters
   # obs. used (total)      670  
   data-arc span      5802 days (15.89 yr)  
   first obs. used      2002-06-01  
   last obs. used      2018-04-20  
   planetary ephem.      DE431  
   SB-pert. ephem.      SB431-N16  
   condition code      0  
   norm. resid. RMS      .34625  
   source      ORB  
   producer      Otto Matic  
   solution date      2018-Apr-21 06:56:47  

Additional Information
 Earth MOID = .00193657 au 
 Jupiter MOID = 3.4793 au 
 T_jup = 4.692 
[ show covariance matrix ]

Ephemeris | Orbit Diagram | Orbital Elements | Mission Design | Physical Parameters | Discovery Circumstances | Close-Approach Data ]

Physical Parameter Table
Parameter Symbol Value Units Sigma Reference Notes
absolute magnitude H 19.7   n/a MPO440511  

332446 (2008 AF4)          Discovered 2008-Jan-10 by LINEAR at Socorro
Reference: 20120703/Numbers.arcLast Updated: 2012-07-09

[ hide close-approach data ]
Close-Approach Data   ...sorted by Date/Time (TDB)
Date/Time (TDB) Time Uncertainty
(days_HH:MM)
Body Nominal Distance (au) Minimum Distance (au) Maximum Distance (au) V-relative (km/s) V-infinity (km/s) JD (TDB) Time Uncertainty (minutes) Semi-major axis (km) Semi-minor axis (km) range-LOV angle (deg) N-sigma BP Orbit Ref. Reference Modified
1900-Aug-13 08:02 00:11 Earth 0.124521589475797 0.124435597645881 0.124607673605862 13.6479914667032 13.6464235466812 2415244.834819038 11.1304253183768 6854.9917766026 23.1386544455816 51.2583620733282 596794.893251756 T 88 CATAB v2.0e-lin.ifort 2018-Apr-21 07:00:23 2018-Dec-18 01:21
1908-Aug-07 18:05 01:07 Earth 0.372384335251822 0.3722348055179 0.372533966182446 5.70008579521004 5.69883037999206 2418161.253184629 66.8103539024397 12221.4004791904 5.26925664237469 -52.4342928273974 682923.486821266 T 88 CATAB v2.0e-lin.ifort 2018-Apr-21 07:00:23 2018-Dec-18 01:21
1908-Nov-05 18:39 01:00 Earth 0.219903641685249 0.219875518449011 0.21993176556989 9.4261090053555 9.42482349052095 2418251.276912964 59.5653621554966 1523.67066284583 34.9934257385515 -23.0199269656732 382231.35880044 T 88 CATAB v2.0e-lin.ifort 2018-Apr-21 07:00:23 2018-Dec-18 01:21
1917-Jan-15 15:54 00:17 Earth 0.109957604592831 0.109759775146476 0.110155434005816 14.7413923673513 14.7397484771886 2421244.162530116 16.5296976071653 9864.49122770607 4.51456877480305 0.0615847099571313 2414.19832859274 T 88 CATAB v2.0e-lin.ifort 2018-Apr-21 07:00:23 2018-Dec-18 01:21
1921-Aug-07 01:28 00:11 Earth 0.230744151152508 0.230602686460569 0.230885634072833 17.3412791843643 17.3406132845963 2422908.560819921 11.1710320300453 7760.70858917314 21.8521869905443 24.6323392274398 603755.43552209 T 88 CATAB v2.0e-lin.ifort 2018-Apr-21 07:00:23 2018-Dec-18 01:21
1929-Oct-06 21:14 00:37 Earth 0.215016874585451 0.214992419972301 0.2150413292493 8.5431348910513 8.54168425180862 2425891.384820989 36.8073519229378 1230.52766892828 31.2531827601644 -7.89372103159237 78860.4145166926 T 88 CATAB v2.0e-lin.ifort 2018-Apr-21 07:00:23 2018-Dec-18 01:21
1930-Feb-02 19:18 00:19 Earth 0.459684604609458 0.459616156211097 0.459753059288385 6.67680684251526 6.6759386584272 2426010.303990466 18.8490013435102 4339.85090159007 69.6250584307202 38.1712159771892 293530.072173033 T 88 CATAB v2.0e-lin.ifort 2018-Apr-21 07:00:23 2018-Dec-18 01:21
1938-Jan-08 23:02 < 00:01 Moon 0.00469408994925727 0.00469238595682059 0.00469580310632068 10.9425742686806 10.9419362101448 2428907.459561380 0.872907849734568 338.776068726385 5.98682982190704 75.4686592244624 113238.118996844 T 88 CATAB v2.0e-lin.ifort 2018-Apr-21 07:00:23 2018-Dec-18 01:21
1938-Jan-09 00:19 < 00:01 Earth 0.00561643642548515 0.00561182041332787 0.00562105720257677 11.8084504795555 11.7682066521857 2428907.513091164 0.781369080883171 346.203026706297 5.8807831031094 48.3169559792196 105035.705178248 T 88 CATAB v2.0e-lin.ifort 2018-Apr-21 07:00:23 2018-Dec-18 01:21
1942-Aug-15 04:35 < 00:01 Earth 0.129300237031291 0.129295328485751 0.129305145847041 13.6767621580724 13.6752553648247 2430586.690749668 0.527292208563803 383.325889436067 9.65023485048017 50.3417856733072 1457680.56527694 T 88 CATAB v2.0e-lin.ifort 2018-Apr-21 07:00:23 2018-Dec-18 01:21
1944-May-27 04:29 < 00:01 Venus 0.13041210526374 0.130409543753542 0.130414666808091 4.7661708649432 4.76267591715904 2431237.686663730 0.564382554259303 165.771712709995 10.9030607517668 -39.9290487211682 516593.363348115 T 88 CATAB v2.0e-lin.ifort 2018-Apr-21 07:00:23 2018-Dec-18 01:21
1951-Jan-16 01:39 < 00:01 Earth 0.103322430549844 0.103313938358574 0.103330922741067 14.5634452661504 14.5616744233109 2433662.568686012 0.724572028443287 423.458281468107 6.11858378045628 -0.359281069633395 36465.0520605229 T 88 CATAB v2.0e-lin.ifort 2018-Apr-21 07:00:23 2018-Dec-18 01:21
1955-Aug-22 03:18 < 00:01 Earth 0.104794223674512 0.104792278632302 0.10479616925776 10.6163979148789 10.6140026871065 2435341.637585203 0.721240811080513 389.74434590371 9.86553078936219 -75.6521788250163 1601899.38393225 T 88 CATAB v2.0e-lin.ifort 2018-Apr-21 07:00:23 2018-Dec-18 01:21
1964-Jan-23 18:07 < 00:01 Earth 0.23666384906993 0.236656477720869 0.236671220419099 18.4070321727403 18.4064205214764 2438418.254685439 0.538678453652484 367.66860347527 6.86978981045801 -1.32709441320792 138160.471030919 T 88 CATAB v2.0e-lin.ifort 2018-Apr-21 07:00:23 2018-Dec-18 01:21
1968-Sep-15 08:13 00:05 Earth 0.187626593872782 0.187621981451382 0.187631206336076 7.4751460460841 7.47324604662602 2440114.842044208 4.52009366596334 269.276379599649 11.9798286209779 -31.386217470296 1189355.61337064 T 88 CATAB v2.0e-lin.ifort 2018-Apr-21 07:00:23 2018-Dec-18 01:21
1972-Jan-28 04:27 < 00:01 Venus 0.140768015611071 0.14076418749703 0.140771843860126 4.98969546085831 4.98660284822263 2441344.685550351 0.466179780236261 289.77959931613 13.5669535101399 48.956575678018 630780.460765605 T 88 CATAB v2.0e-lin.ifort 2018-Apr-21 07:00:23 2018-Dec-18 01:21
1977-Jan-31 03:18 < 00:01 Earth 0.397081263671911 0.397075339441273 0.397087187902549 23.0990631677309 23.0987726709489 2443174.637443273 0.408832549917928 295.432536317127 8.13698823163561 -0.649965589690918 197517.018546088 T 88 CATAB v2.0e-lin.ifort 2018-Apr-21 07:00:23 2018-Dec-18 01:21
1981-Nov-01 18:03 00:02 Earth 0.221058396099319 0.221057978811369 0.221058813387269 9.38353534301019 9.38225074106183 2444910.251837933 1.92043647640194 20.8454728976877 14.8934232274049 4.50535806452442 2206948.23907794 T 88 CATAB v2.0e-lin.ifort 2018-Apr-21 07:00:23 2018-Dec-18 01:21
1986-Jul-30 16:02 < 00:01 Earth 0.415072349178416 0.41506723711789 0.415077461242174 22.8721774993119 22.8718968372538 2446642.168353009 0.278251019974179 261.397396549553 10.1400786994826 12.7967714152525 1256233.24190057 T 88 CATAB v2.0e-lin.ifort 2018-Apr-21 07:00:23 2018-Dec-18 01:21
1994-Jul-24 21:13 < 00:01 Earth 0.465186693602108 0.465183912015072 0.465189475196468 7.53649962083161 7.53573957935846 2449558.384138721 0.612860980748529 166.489915947087 6.35920630822602 -33.6241390339522 3574945.10157931 T 88 CATAB v2.0e-lin.ifort 2018-Apr-21 07:00:23 2018-Dec-18 01:21
1994-Dec-08 18:09 00:01 Earth 0.16942260646523 0.169420596607994 0.169424616328417 8.73665090569719 8.73485062276943 2449695.256197568 1.28865249199659 112.202144166426 11.8921188009864 26.8876693269684 859030.54576124 T 88 CATAB v2.0e-lin.ifort 2018-Apr-21 07:00:23 2018-Dec-18 01:21
1997-Oct-20 23:23 < 00:01 Mars 0.0693435344893929 0.0693413696992294 0.0693456993507045 8.93068256873428 8.93022026563986 2450742.474124615 0.0893004804082105 154.952408812312 9.11981545032963 45.9409572737046 816178.385693961 T 88 CATAB v2.0e-lin.ifort 2018-Apr-21 07:00:23 2018-Dec-18 01:21
1999-Aug-07 03:36 < 00:01 Earth 0.273644115933197 0.273641426233091 0.273646805636726 18.6128966376808 18.612373497136 2451397.650160408 0.116622211215171 142.59612167342 9.58871666843083 19.8995816983288 1344058.88101675 T 88 CATAB v2.0e-lin.ifort 2018-Apr-21 07:00:23 2018-Dec-18 01:21
2008-Jan-04 21:37 < 00:01 Earth 0.051752595684541 0.0517523124003192 0.0517528789688128 10.2786193679831 10.2736092114598 2454470.400702015 0.088601346012809 14.4060903130206 5.98412493231582 12.4181541414961 625055.2890385 T 88 CATAB v2.0e-lin.ifort 2018-Apr-21 07:00:23 2018-Dec-18 01:21
2012-Aug-10 19:48 < 00:01 Earth 0.193558565740902 0.193557710369133 0.193559421113693 16.0535624500088 16.0527049381421 2456150.324752960 0.140111480435631 48.3742565395994 9.87505184348885 28.8116514848721 1402217.84836594 T 88 CATAB v2.0e-lin.ifort 2018-Apr-21 07:00:23 2018-Dec-18 01:21
